TimeAKDT,TemperatureF,Dew PointF,Humidity,Sea Level PressureIn,VisibilityMPH,Wind Direction,Wind SpeedMPH,Gust SpeedMPH,PrecipitationIn,Events,Conditions,WindDirDegrees,DateUTC
12:16 AM,48.2,42.8,82,30.41,7.0,Calm,Calm,-,0.01,,Overcast,0,2013-05-04 08:16:00
12:36 AM,46.4,42.8,87,30.40,3.0,NNW,4.6,-,0.01,,Overcast,340,2013-05-04 08:36:00
12:56 AM,46.4,42.8,87,30.40,3.0,NNW,5.8,-,0.02,,Overcast,340,2013-05-04 08:56:00
1:16 AM,46.4,42.8,87,30.40,3.0,North,3.5,-,0.01,,Overcast,350,2013-05-04 09:16:00
1:36 AM,46.4,42.8,87,30.40,3.0,NNE,4.6,-,0.01,,Overcast,30,2013-05-04 09:36:00
1:56 AM,46.4,42.8,87,30.40,5.0,Calm,Calm,-,0.01,,Overcast,0,2013-05-04 09:56:00
2:16 AM,46.4,42.8,87,30.39,7.0,Calm,Calm,-,N/A,,Overcast,0,2013-05-04 10:16:00
2:36 AM,46.4,42.8,87,30.39,8.0,Calm,Calm,-,N/A,,Overcast,0,2013-05-04 10:36:00
2:56 AM,46.4,42.8,87,30.39,7.0,Calm,Calm,-,N/A,,Overcast,0,2013-05-04 10:56:00
3:16 AM,46.4,42.8,87,30.39,6.0,SSW,3.5,-,N/A,,Overcast,200,2013-05-04 11:16:00
3:36 AM,46.4,42.8,87,30.39,4.0,Calm,Calm,-,N/A,,Overcast,0,2013-05-04 11:36:00
3:56 AM,46.4,42.8,87,30.39,7.0,Calm,Calm,-,N/A,,Overcast,0,2013-05-04 11:56:00
4:16 AM,46.4,42.8,87,30.40,10.0,Calm,Calm,-,N/A,,Overcast,0,2013-05-04 12:16:00
4:36 AM,46.4,44.6,93,30.40,10.0,Calm,Calm,-,N/A,,Overcast,0,2013-05-04 12:36:00
4:56 AM,46.4,42.8,87,30.41,10.0,Calm,Calm,-,N/A,,Overcast,0,2013-05-04 12:56:00
5:16 AM,46.4,44.6,93,30.41,10.0,Calm,Calm,-,N/A,,Overcast,0,2013-05-04 13:16:00
5:36 AM,46.4,42.8,87,30.41,10.0,WSW,3.5,-,N/A,,Overcast,240,2013-05-04 13:36:00
6:16 AM,46.4,42.8,87,30.41,7.0,SW,3.5,-,N/A,,Overcast,230,2013-05-04 14:16:00
6:36 AM,46.4,42.8,87,30.41,7.0,Calm,Calm,-,N/A,,Overcast,0,2013-05-04 14:36:00
6:56 AM,46.4,42.8,87,30.41,10.0,WSW,3.5,-,N/A,,Overcast,240,2013-05-04 14:56:00
7:16 AM,46.4,44.6,93,30.40,10.0,West,3.5,-,N/A,,Overcast,270,2013-05-04 15:16:00
7:36 AM,46.4,44.6,93,30.41,10.0,WSW,5.8,-,N/A,,Overcast,250,2013-05-04 15:36:00
7:56 AM,46.4,44.6,93,30.41,7.0,Calm,Calm,-,N/A,,Overcast,0,2013-05-04 15:56:00
8:16 AM,46.4,44.6,93,30.40,7.0,Calm,Calm,-,N/A,,Overcast,0,2013-05-04 16:16:00
8:36 AM,46.4,44.6,93,30.40,7.0,Calm,Calm,-,N/A,,Overcast,0,2013-05-04 16:36:00
8:56 AM,46.4,44.6,93,30.40,7.0,Calm,Calm,-,N/A,,Overcast,0,2013-05-04 16:56:00
9:16 AM,48.2,44.6,87,30.39,7.0,Calm,Calm,-,N/A,,Overcast,0,2013-05-04 17:16:00
9:36 AM,48.2,44.6,87,30.39,7.0,NNE,3.5,-,N/A,,Overcast,30,2013-05-04 17:36:00
9:56 AM,48.2,44.6,87,30.40,5.0,NNW,3.5,-,N/A,,Overcast,340,2013-05-04 17:56:00
10:16 AM,48.2,44.6,87,30.39,5.0,Calm,Calm,-,N/A,,Overcast,0,2013-05-04 18:16:00
10:36 AM,48.2,44.6,87,30.40,5.0,Calm,Calm,-,N/A,,Overcast,0,2013-05-04 18:36:00
10:56 AM,48.2,44.6,87,30.39,5.0,Calm,Calm,-,N/A,,Overcast,0,2013-05-04 18:56:00
11:16 AM,48.2,44.6,87,30.39,5.0,Calm,Calm,-,N/A,,Overcast,0,2013-05-04 19:16:00
11:36 AM,48.2,46.4,93,30.39,5.0,Calm,Calm,-,N/A,,Overcast,0,2013-05-04 19:36:00
11:56 AM,50.0,46.4,87,30.39,5.0,Calm,Calm,-,N/A,,Overcast,0,2013-05-04 19:56:00
12:16 PM,50.0,46.4,87,30.39,10.0,WNW,3.5,-,N/A,,Overcast,300,2013-05-04 20:16:00
12:36 PM,50.0,46.4,87,30.39,5.0,Calm,Calm,-,N/A,,Overcast,0,2013-05-04 20:36:00
12:56 PM,50.0,46.4,87,30.40,5.0,Calm,Calm,-,N/A,,Overcast,0,2013-05-04 20:56:00
1:16 PM,50.0,46.4,87,30.40,5.0,West,3.5,-,N/A,,Overcast,260,2013-05-04 21:16:00
1:36 PM,50.0,46.4,87,30.41,5.0,Calm,Calm,-,N/A,,Overcast,0,2013-05-04 21:36:00
1:56 PM,51.8,46.4,82,30.41,3.0,NW,3.5,-,N/A,,Overcast,310,2013-05-04 21:56:00
2:16 PM,50.0,48.2,94,30.40,3.0,North,3.5,-,N/A,,Overcast,10,2013-05-04 22:16:00
2:36 PM,50.0,46.4,87,30.40,3.0,North,3.5,-,N/A,,Overcast,360,2013-05-04 22:36:00
2:56 PM,51.8,46.4,82,30.39,3.0,Calm,Calm,-,N/A,,Overcast,0,2013-05-04 22:56:00
3:16 PM,51.8,46.4,82,30.39,3.0,WNW,3.5,-,N/A,,Overcast,300,2013-05-04 23:16:00
3:36 PM,51.8,46.4,82,30.39,3.0,NNW,4.6,-,N/A,,Overcast,330,2013-05-04 23:36:00
3:56 PM,51.8,48.2,88,30.38,5.0,NNW,3.5,-,N/A,,Overcast,340,2013-05-04 23:56:00
4:16 PM,51.8,48.2,88,30.38,5.0,Calm,Calm,-,N/A,,Overcast,0,2013-05-05 00:16:00
4:36 PM,51.8,48.2,88,30.37,5.0,NNE,3.5,-,N/A,,Overcast,20,2013-05-05 00:36:00
5:56 PM,51.8,48.2,88,30.36,10.0,Calm,Calm,-,N/A,,Overcast,0,2013-05-05 01:56:00
6:16 PM,51.8,48.2,88,30.36,10.0,Calm,Calm,-,N/A,,Overcast,0,2013-05-05 02:16:00
6:36 PM,51.8,48.2,88,30.36,10.0,Calm,Calm,-,N/A,,Overcast,0,2013-05-05 02:36:00
6:56 PM,51.8,48.2,88,30.35,10.0,Calm,Calm,-,N/A,,Overcast,0,2013-05-05 02:56:00
7:16 PM,50.0,48.2,94,30.35,10.0,Calm,Calm,-,N/A,,Overcast,0,2013-05-05 03:16:00
7:36 PM,51.8,46.4,82,30.34,10.0,Calm,Calm,-,N/A,,Overcast,0,2013-05-05 03:36:00
7:56 PM,50.0,46.4,87,30.34,10.0,Calm,Calm,-,N/A,,Overcast,0,2013-05-05 03:56:00
8:16 PM,51.8,46.4,82,30.34,10.0,SE,3.5,-,N/A,,Overcast,140,2013-05-05 04:16:00
8:36 PM,50.0,46.4,87,30.34,10.0,Calm,Calm,-,N/A,,Overcast,0,2013-05-05 04:36:00
8:56 PM,48.2,46.4,93,30.33,10.0,Calm,Calm,-,N/A,,Overcast,0,2013-05-05 04:56:00
9:16 PM,48.2,44.6,87,30.34,10.0,Calm,Calm,-,N/A,,Overcast,0,2013-05-05 05:16:00
9:36 PM,48.2,46.4,93,30.34,10.0,Calm,Calm,-,N/A,,Overcast,0,2013-05-05 05:36:00
9:56 PM,48.2,46.4,93,30.33,10.0,Calm,Calm,-,N/A,,Overcast,0,2013-05-05 05:56:00
10:16 PM,48.2,46.4,93,30.33,10.0,NE,3.5,-,N/A,,Overcast,50,2013-05-05 06:16:00
10:36 PM,48.2,44.6,87,30.33,10.0,Calm,Calm,-,N/A,,Overcast,0,2013-05-05 06:36:00
10:56 PM,46.4,44.6,93,30.33,10.0,West,5.8,-,N/A,,Overcast,260,2013-05-05 06:56:00
11:16 PM,46.4,44.6,93,30.32,10.0,Calm,Calm,-,N/A,,Overcast,0,2013-05-05 07:16:00
11:36 PM,46.4,44.6,93,30.32,10.0,Calm,Calm,-,N/A,,Overcast,0,2013-05-05 07:36:00
11:56 PM,48.2,42.8,82,30.31,10.0,SSW,6.9,-,N/A,,Overcast,210,2013-05-05 07:56:00